Weather History for KDLS - July, 2012

Change the Weather History Date:

Friday, July 27, 2012

  Actual Average Record
Temperature  
Mean Temperature 72 °F -  
Max Temperature 81 °F 93 °F 109 °F (1998)
Min Temperature 64 °F 62 °F 52 °F (1955)
Cooling Degree Days 7    
Growing Degree Days 22 (Base 50)    
Moisture  
Dew Point 53 °F    
Average Humidity 52    
Maximum Humidity 73    
Minimum Humidity 36    
Precipitation  
Precipitation 0.00 in - - ()
Sea Level Pressure  
Sea Level Pressure 29.93 in    
Wind  
Wind Speed 16 mph (NW)    
Max Wind Speed 29 mph    
Max Gust Speed 38 mph    
Visibility 10 miles    
Events      
Averages and records for this station are not official NWS values.
T = Trace of Precipitation, MM = Missing Value Source: NWS Daily Summary

Daily Weather History Graph

Daily Weather History Graph

Search for Another Location

Airport or City:

Trip Planner

Search our weather history database for the weather conditions in past years. The results will help you decide how hot, cold, wet, or windy it might be!

Date:

Astronomy

Jul. 27, 2012 Rise Set
Actual Time 5:43 AM PDT 8:38 PM PDT
Civil Twilight 5:08 AM PDT 9:13 PM PDT
Nautical Twilight 4:23 AM PDT 9:57 PM PDT
Astronomical Twilight 3:30 AM PDT 10:50 PM PDT
Moon 3:43 PM PDT (7/27) 12:20 AM PDT (7/27)
Length of Visible Light 16h 04m
Length of Day
14h 55m
Waxing Gibbous, 66% of the Moon is Illuminated
Jul 27
Waxing Gibbous
Aug 1
Full
Aug 9
Last Quarter
Aug 17
New
Aug 24
First Quarter

Hourly Weather History & Observations

Time (PDT) Temp. Dew Point Humidity Pressure Visibility Wind Dir Wind Speed Gust Speed Precip Events Conditions
12:53 AM 73.0 °F 57.9 °F 59% 29.86 in 10.0 mi NW 16.1 mph - N/A   Clear
1:53 AM 70.0 °F 57.9 °F 65% 29.86 in 10.0 mi NW 3.5 mph - N/A   Clear
2:53 AM 68.0 °F 57.0 °F 68% 29.88 in 10.0 mi NW 11.5 mph - N/A   Clear
3:53 AM 66.0 °F 57.0 °F 73% 29.88 in 10.0 mi NW 16.1 mph - N/A   Clear
4:53 AM 64.9 °F 55.9 °F 73% 29.89 in 10.0 mi NW 18.4 mph 25.3 mph N/A   Clear
5:53 AM 64.9 °F 55.9 °F 73% 29.91 in 10.0 mi NW 15.0 mph 21.9 mph N/A   Clear
6:53 AM 66.0 °F 55.0 °F 68% 29.91 in 10.0 mi NW 17.3 mph - N/A   Clear
7:53 AM 68.0 °F 55.9 °F 65% 29.92 in 10.0 mi NW 11.5 mph 23.0 mph N/A   Clear
8:53 AM 72.0 °F 54.0 °F 53% 29.93 in 10.0 mi WNW 23.0 mph 28.8 mph N/A   Clear
9:53 AM 73.9 °F 54.0 °F 50% 29.93 in 10.0 mi WNW 17.3 mph 26.5 mph N/A   Clear
10:53 AM 75.9 °F 52.0 °F 43% 29.93 in 10.0 mi NW 24.2 mph 35.7 mph N/A   Clear
11:53 AM 77.0 °F 52.0 °F 42% 29.94 in 10.0 mi NW 28.8 mph 38.0 mph N/A   Clear
12:53 PM 79.0 °F 51.1 °F 38% 29.93 in 10.0 mi WNW 28.8 mph 36.8 mph N/A   Clear
1:53 PM 80.1 °F 51.1 °F 36% 29.94 in 10.0 mi NW 23.0 mph 34.5 mph N/A   Clear
2:53 PM 78.1 °F 52.0 °F 40% 29.94 in 10.0 mi NNW 21.9 mph 29.9 mph N/A   Clear
3:53 PM 78.1 °F 52.0 °F 40% 29.94 in 10.0 mi NNW 19.6 mph 32.2 mph N/A   Clear
4:53 PM 78.1 °F 52.0 °F 40% 29.94 in 10.0 mi NW 16.1 mph 29.9 mph N/A   Clear
5:53 PM 77.0 °F 51.1 °F 40% 29.94 in 10.0 mi NW 18.4 mph 25.3 mph N/A   Clear
6:53 PM 75.0 °F 51.1 °F 43% 29.95 in 10.0 mi WNW 15.0 mph 26.5 mph N/A   Clear
7:53 PM 72.0 °F 50.0 °F 46% 29.96 in 10.0 mi WNW 20.7 mph 26.5 mph N/A   Clear
8:53 PM 69.1 °F 48.9 °F 49% 29.98 in 10.0 mi WNW 17.3 mph 31.1 mph N/A   Clear
9:53 PM 68.0 °F 48.0 °F 49% 30.00 in 10.0 mi WNW 15.0 mph - N/A   Clear
10:53 PM 68.0 °F 48.0 °F 49% 30.00 in 10.0 mi WNW 13.8 mph 24.2 mph N/A   Clear
11:53 PM 66.9 °F 48.0 °F 51% 30.01 in 10.0 mi NW 12.7 mph 19.6 mph N/A   Clear